Nassau, Bahamas

6:22 AM EST on November 24, 2017 (GMT -0500)
Nassau International

Weather History for MYNN - December, 2012

Change the Weather History Date:

Tuesday, December 11, 2012

  Actual Average Record
Temperature  
Mean Temperature 76 °F -  
Max Temperature 84 °F 78 °F 87 °F (2002)
Min Temperature 68 °F 63 °F 55 °F (1996)
Cooling Degree Days 11    
Growing Degree Days 26 (Base 50)    
Moisture  
Dew Point 70 °F    
Average Humidity 84    
Maximum Humidity 95    
Minimum Humidity 65    
Precipitation  
Precipitation 0.00 in 0.07 in - ()
Sea Level Pressure  
Sea Level Pressure 30.02 in    
Wind  
Wind Speed 7 mph ()    
Max Wind Speed 15 mph    
Max Gust Speed -    
Visibility 6.6 miles    
Events Rain , Thunderstorm    
Averages and records for this station are not official NWS values.
T = Trace of Precipitation, MM = Missing Value Source: Averaged Metar Reports

Daily Weather History Graph

Daily Weather History Graph

Search for Another Location

Airport or City:

Trip Planner

Search our weather history database for the weather conditions in past years. The results will help you decide how hot, cold, wet, or windy it might be!

Date:

Astronomy

Dec. 11, 2012 Rise Set
Actual Time 6:45 AM EST 5:21 PM EST
Civil Twilight 6:20 AM EST 5:46 PM EST
Nautical Twilight 5:51 AM EST 6:15 PM EST
Astronomical Twilight 5:23 AM EST 6:43 PM EST
Moon 4:43 AM EST (12/11) 3:54 PM EST (12/11)
Length of Visible Light 11h 26m
Length of Day
10h 36m
Waning Crescent, 4% of the Moon is Illuminated
Dec 11
Waning Crescent
Dec 13
New
Dec 20
First Quarter
Dec 28
Full
Jan 4
Last Quarter

Hourly Weather History & Observations

Time (EST) Temp. Heat Index Dew Point Humidity Pressure Visibility Wind Dir Wind Speed Gust Speed Precip Events Conditions
12:00 AM 73.4 °F - 60.8 °F 65% 30.18 in 6.2 mi NNE 11.5 mph - N/A   Mostly Cloudy
1:00 AM 76 °F - 74 °F 93% 29.99 in 9 mi ESE 5.8 mph - -   Scattered Clouds
1:00 AM 71.6 °F - 66.2 °F 83% 29.98 in 6.2 mi Calm Calm - N/A   Mostly Cloudy
2:00 AM 71.6 °F - 68.0 °F 88% 29.98 in 6.2 mi Calm Calm - N/A   Mostly Cloudy
3:00 AM 71.6 °F - 66.2 °F 83% 29.93 in 6.2 mi East 12.7 mph - N/A   Mostly Cloudy
4:00 AM 75 °F - 74 °F 94% 29.99 in 9 mi SE 2.3 mph - -   Scattered Clouds
4:00 AM 71.6 °F - 66.2 °F 83% 29.93 in 6.2 mi East 11.5 mph - N/A   Mostly Cloudy
5:00 AM 71.6 °F - 66.2 °F 83% 29.93 in 6.2 mi East 12.7 mph - N/A   Mostly Cloudy
6:00 AM 75.2 °F - 71.6 °F 89% 30.00 in 6.2 mi SE 2.3 mph - N/A   Scattered Clouds
7:00 AM 75 °F - 74 °F 95% 30.02 in 9 mi SE 4.6 mph - -   Scattered Clouds
7:00 AM 75.2 °F - 73.4 °F 94% 30.07 in 6.2 mi Variable 2.3 mph - N/A   Scattered Clouds
8:00 AM 73.4 °F - 69.8 °F 88% 29.99 in 6.2 mi Variable 1.2 mph - N/A   Scattered Clouds
9:00 AM 78.8 °F - 73.4 °F 83% 30.07 in 6.2 mi ESE 6.9 mph - N/A   Mostly Cloudy
10:00 AM 81 °F - 75 °F 78% 30.08 in 9 mi SE 10.4 mph - -   Partly Cloudy
10:00 AM 78.8 °F - 73.4 °F 83% 30.12 in 6.2 mi East 13.8 mph - N/A   Scattered Clouds
11:00 AM 80.6 °F 84.6 °F 71.6 °F 74% 30.06 in 6.2 mi SE 11.5 mph - N/A   Mostly Cloudy
12:00 PM 77.0 °F - 66.2 °F 69% 30.09 in 6.2 mi NNE 9.2 mph - N/A   Mostly Cloudy
1:00 PM 83 °F - - % 30.05 in 9 mi SSE 11.5 mph - -   Mostly Cloudy
1:00 PM 82.4 °F 88.2 °F 73.4 °F 74% 29.98 in 6.2 mi East 10.4 mph - N/A   Mostly Cloudy
2:00 PM 71.6 °F - 68.0 °F 88% 29.93 in 5.6 mi Calm Calm - N/A   Mostly Cloudy
3:00 PM 71.6 °F - 68.0 °F 88% 29.93 in 5.0 mi NE 6.9 mph - N/A Rain Light Rain Showers
4:00 PM 81 °F - 74 °F 74% 30.02 in 9 mi East 11.5 mph - -   Partly Cloudy
4:00 PM 69.8 °F - 68.0 °F 94% 29.94 in 5.6 mi NNE 5.8 mph - N/A Rain Rain Showers
5:00 PM 69.8 °F - 66.2 °F 88% 29.95 in 3.7 mi NNE 9.2 mph - N/A Rain , Thunderstorm Thunderstorms and Rain
6:00 PM 68.0 °F - 64.4 °F 88% 29.97 in 3.7 mi NE 15.0 mph - N/A Rain Rain
7:00 PM 77 °F - 74 °F 90% 30.04 in 9 mi East 6.9 mph - -   Scattered Clouds
7:00 PM 77.0 °F - 75.2 °F 94% 30.03 in 6.2 mi ENE 4.6 mph - N/A   Mostly Cloudy
8:00 PM 75.2 °F - 69.8 °F 83% 30.05 in 6.2 mi ESE 8.1 mph - N/A   Mostly Cloudy
9:00 PM 68.0 °F - 62.6 °F 83% 29.98 in 5.0 mi NE 11.5 mph - N/A Rain Light Rain
10:00 PM 77 °F - 74 °F 87% 30.08 in 9 mi East 4.6 mph - -   Scattered Clouds
10:00 PM 68.0 °F - 64.4 °F 88% 29.97 in 6.2 mi ENE 8.1 mph - N/A   Mostly Cloudy
11:00 PM 71.6 °F - 62.6 °F 73% 30.18 in 6.2 mi NNE 8.1 mph - N/A   Mostly Cloudy